Location: Mahannah Oil Field
(37.4664°N, 96.6003°W)
Time: 09:57:28
(UTC+00:00)

Tiros 1 despin weight - All Passes

Search period start: 24 January 2021 00:00
Search period end: 03 February 2021 00:00
Orbit: 594 x 641 km, 48.2° (Epoch: 24 January)

Date Brightness Start Highest point End Pass type
(mag) Time Alt. Az. Time Alt. Az. Time Alt. Az.
24 Jan - 00:50:53 10° NW 00:54:34 24° NNE 00:58:12 10° ENE visible
24 Jan - 02:32:14 10° NW 02:36:39 72° NNE 02:41:03 10° ESE visible
24 Jan - 04:14:38 10° W 04:17:48 19° SW 04:20:58 10° S night (unlit)
24 Jan - 18:21:56 10° SSE 18:23:26 11° SE 18:24:55 10° ESE daylight
24 Jan - 19:59:48 10° SW 20:04:22 72° SE 20:08:53 10° ENE daylight
24 Jan - 21:42:09 10° W 21:46:12 31° NNW 21:50:13 10° NE daylight
24 Jan - 23:25:23 10° NW 23:28:45 20° N 23:32:06 10° NE daylight
25 Jan - 01:07:14 10° NW 01:11:17 33° NNE 01:15:17 10° E visible
25 Jan - 02:48:39 10° WNW 02:53:02 60° SW 02:57:21 10° SE visible
25 Jan - 18:35:48 10° S 18:39:29 24° SE 18:43:09 10° E daylight
25 Jan - 20:16:13 10° WSW 20:20:46 63° NNW 20:25:15 10° NE daylight
25 Jan - 21:59:15 10° WNW 22:02:56 24° NNW 22:06:35 10° NE daylight
25 Jan - 23:42:04 10° NW 23:45:36 22° N 23:49:05 10° ENE daylight
26 Jan - 01:23:31 10° NW 01:27:53 51° NNE 01:32:11 10° ESE visible
26 Jan - 03:05:23 10° WNW 03:09:15 29° SW 03:13:04 10° SSE visible
26 Jan - 18:51:15 10° SSW 18:55:40 48° SE 19:00:04 10° ENE daylight
26 Jan - 20:33:01 10° W 20:37:18 38° NNW 20:41:33 10° NE daylight
26 Jan - 22:16:19 10° NW 22:19:45 21° N 22:23:09 10° NE daylight
26 Jan - 23:58:31 10° NW 00:02:22 27° NNE 00:06:10 10° ENE daylight
27 Jan - 01:39:52 10° NW 01:44:20 89° SW 01:48:44 10° SE visible
27 Jan - 03:22:57 10° W 03:25:20 14° SW 03:27:42 10° SSW visible
27 Jan - 17:28:07 10° SSE 17:30:55 16° SE 17:33:43 10° E daylight
27 Jan - 19:07:22 10° SW 19:12:00 89° NNW 19:16:34 10° NE daylight
27 Jan - 20:50:03 10° WNW 20:53:58 27° NNW 20:57:52 10° NE daylight
27 Jan - 22:33:10 10° NW 22:36:36 21° N 22:40:00 10° NE daylight
28 Jan - 00:14:50 10° NW 00:19:02 39° NNE 00:23:12 10° E visible
28 Jan - 01:56:23 10° WNW 02:00:38 45° SW 02:04:50 10° SSE visible
28 Jan - 17:42:55 10° SSW 17:47:01 32° SE 17:51:06 10° ENE daylight
28 Jan - 19:23:58 10° WSW 19:28:27 51° NNW 19:32:53 10° NE daylight
28 Jan - 21:07:10 10° WNW 21:10:45 22° N 21:14:19 10° NE daylight
28 Jan - 22:49:44 10° NW 22:53:25 24° NNE 22:57:03 10° ENE daylight
29 Jan - 00:31:07 10° NW 00:35:35 65° NNE 00:39:57 10° ESE visible
29 Jan - 02:13:21 10° W 02:16:47 22° SW 02:20:12 10° S visible
29 Jan - 17:58:41 10° SW 18:03:15 64° SE 18:07:48 10° ENE daylight
29 Jan - 19:40:53 10° W 19:45:03 33° NNW 19:49:11 10° NE daylight
29 Jan - 21:24:09 10° NW 21:27:35 21° N 21:30:59 10° NE daylight
29 Jan - 23:06:07 10° NW 23:10:09 31° NNE 23:14:08 10° E daylight
30 Jan - 00:47:31 10° WNW 00:51:58 69° SW 00:56:21 10° SE visible
30 Jan - 02:32:19 10° WSW 02:32:49 10° SW 02:33:19 10° SW visible
30 Jan - 16:34:54 10° S 16:38:24 22° SE 16:41:55 10° E daylight
30 Jan - 18:15:02 10° WSW 18:19:39 70° NNW 18:24:12 10° NE daylight
30 Jan - 19:57:58 10° WNW 20:01:46 25° NNW 20:05:32 10° NE daylight
30 Jan - 21:40:53 10° NW 21:44:26 22° N 21:47:56 10° ENE daylight
30 Jan - 23:22:25 10° NW 23:26:46 47° NNE 23:31:04 10° ESE daylight
31 Jan - 01:04:11 10° WNW 01:08:13 34° SW 01:12:11 10° SSE visible
31 Jan - 16:50:11 10° SSW 16:54:34 43° SE 16:58:56 10° ENE daylight
31 Jan - 18:31:45 10° W 18:36:09 42° NNW 18:40:31 10° NE daylight
31 Jan - 20:15:02 10° NW 20:18:34 21° N 20:22:04 10° NE daylight
31 Jan - 21:57:22 10° NW 22:01:13 26° NNE 22:05:00 10° ENE daylight
31 Jan - 23:38:44 10° NW 23:43:15 82° NNE 23:47:41 10° ESE daylight
01 Feb - 01:21:30 10° W 01:24:18 17° SW 01:27:06 10° S visible
01 Feb - 15:27:24 10° SSE 15:29:51 14° SE 15:32:17 10° E daylight
01 Feb - 17:06:13 10° SW 17:10:52 83° SE 17:15:28 10° ENE daylight
01 Feb - 18:48:45 10° W 18:52:48 29° NNW 18:56:48 10° NE daylight
01 Feb - 20:31:56 10° NW 20:35:25 21° N 20:38:51 10° NE daylight
01 Feb - 22:13:42 10° NW 22:17:55 36° NNE 22:22:02 10° E daylight
01 Feb - 23:55:13 10° WNW 23:59:35 51° SW 00:03:52 10° SE daylight
02 Feb - 15:41:56 10° SSW 15:45:56 29° SE 15:49:54 10° ENE daylight
02 Feb - 17:22:43 10° WSW 17:27:18 56° NNW 17:31:50 10° NE daylight
02 Feb - 19:05:51 10° WNW 19:09:34 23° N 19:13:14 10° NE daylight
02 Feb - 20:48:33 10° NW 20:52:14 23° N 20:55:52 10° ENE daylight
02 Feb - 22:30:00 10° NW 22:34:29 59° NNE 22:38:52 10° ESE daylight
